Location: Almena Post Office
(39.8928°N, 99.7066°W)
Time: 05:58:41
(UTC+00:00)

Cosmos 1470 Rocket - Pass Details

Date: 27 February 2020
Orbit: 604 x 633 km, 82.5° (Epoch: 06 April)

Event Time Altitude Azimuth Distance (km) Brightness Sun altitude
Rises 12:31:00 0° 346° (NNW) 2,934 6.8 -9.3°
Reaches altitude 10° 12:33:18 10° 340° (NNW) 2,024 6.0 -8.9°
Maximum altitude 12:37:36 47° 267° (W) 842 3.8 -8.1°
Drops below altitude 10° 12:41:53 10° 194° (SSW) 2,009 6.1 -7.3°
Sets 12:44:09 0° 188° (S) 2,910 7.0 -6.8°
